THORAD AGENA D DEB, 4766

Orbit data source: Space-Track

THORAD AGENA D DEB, 4766 is space debris in SSO originally from a launch on Wed, 08 Apr 1970 UTC launched from the Air Force Western Test Range (AFWTR). Debris objects in space refer to the collection of defunct objects orbiting the Earth. Examples of debris include non-operational satellites, rocket bodies, and fragments generated from explosions, collisions, or faulty payload assembly.

Loading next visibility...
Identifier
4766, 1970-025DL
Orbit
SSO
Country
Flag of USUS
Related business
Manufacturer
Unknown
Mission
Spacecraft
Bus & Motor
Unknown
Mass
Unknown
Launch date (UTC)
1970-04-08 (56 years ago)
Launch vehicle
Unknown
Launch site
Air Force Western Test Range (AFWTR)
Object type
Payload
Rocket body
Debris
Shape & HBR
Unknown shape, 0.2 m
Radar Cross Section
Small (<0.1 m²)

Expand to show TLE details & history
Last TLE update: 2 days ago

TLE from 2 days ago
0 THORAD AGENA D DEB
1 04766U 70025DL  25305.88596009  .00000099  00000-0  20954-3 0  9998
2 04766 100.1031  88.4765 0009239 189.8624 324.4213 13.55886989745827
Epoch: 2025-11-01T21:15Z
TLE epoch observation values (Epoch: 2025-11-01T21:15:46.951Z)
Latitude
25.3807°
Longitude
-87.05457°
Altitude
1,048.051 km
Speed
7.333 km/s
True Right ascension
18h 13m 12s
True Declination
25° 15' 11"
Sunlit
Object was in daylight at epoch
Visualization orbit readout
Latitude
Unknown
Longitude
Unknown
Altitude
Unknown
Speed
Unknown
Apparent Right ascension
Unknown
Apparent Declination
Unknown
Sunlit
N/A
Visualization observer readout
Local Sidereal Time
19:32:25
Azimuth
Unknown
Elevation
Unknown
Doppler factor
Unknown
Orbital elements
Apogee altitude
1,054.853 km
Perigee altitude
1,041.131 km
Semi-major axis
7,426.129 km
Eccentricity
0.00092
Inclination
100.1031°
RAAN
88.4765°
Arg. of periapsis
189.8624°
True anomaly
324.35964°
Mean anomaly
324.4213°
Eccentric anomaly
324.39048°
Mean motion
3.39156 °/min
Orbital period
106.15 mins
BSTAR
0.00020954
Loading maneuver chart data...
Computing Atmospheric mass density...

Documentation

Showing up to 5 results
|